DW3263 Weather Reports


time (UTC)temp
C
wind
direction
speed
KPH
gust
KPH
rain 1hr
cm
rain 24hr
cm
rain mn
cm
humidity
%
barometer
mb
20260905170020 25 315 3.2 9.7 0.00 0.00 0.00 63 1011.3
20260905165019 25 315 1.6 6.4 0.00 0.00 0.00 63 1011.5
20260905164020 25 315 1.6 6.4 0.00 0.00 0.00 63 1011.5
20260905163021 25 315 1.6 6.4 0.00 0.00 0.00 63 1011.4
20260905162020 24 315 1.6 6.4 0.00 0.00 0.00 64 1011.6
20260905161020 24 315 3.2 12.9 0.00 0.00 0.00 64 1011.7
20260905160233 24 315 1.6 4.8 0.00 0.00 0.00 64 1011.8
20260905155020 24 315 1.6 6.4 0.00 0.00 0.00 64 1011.9
20260905154020 24 315 1.6 8.0 0.00 0.00 0.00 63 1011.9
20260905153020 23 0.0 3.2 0.00 0.00 0.00 61 1012.0
20260905152232 23 315 1.6 4.8 0.00 0.00 0.00 62 1011.9
20260905151020 23 315 6.4 11.3 0.00 0.00 0.00 62 1011.9
20260905150020 23 315 1.6 4.8 0.00 0.00 0.00 62 1011.9
20260905145021 23 315 3.2 8.0 0.00 0.00 0.00 62 1011.8
20260905144020 23 315 4.8 11.3 0.00 0.00 0.00 63 1011.9
20260905143020 24 315 3.2 6.4 0.00 0.00 0.00 60 1011.9
20260905142020 24 315 1.6 4.8 0.00 0.00 0.00 60 1011.7
20260905141020 23 315 1.6 8.0 0.00 0.00 0.00 59 1011.5
20260905140020 23 315 3.2 6.4 0.00 0.00 0.00 61 1011.3
20260905135020 23 315 1.6 4.8 0.00 0.00 0.00 48 1011.4
20260905134020 23 315 1.6 8.0 0.00 0.00 0.00 59 1011.5
20260905133020 23 315 1.6 11.3 0.00 0.00 0.00 53 1011.7
20260905132233 22 315 1.6 4.8 0.00 0.00 0.00 44 1011.6
20260905131020 22 315 1.6 4.8 0.00 0.00 0.00 46 1011.6
20260905130020 22 0.0 3.2 0.00 0.00 0.00 35 1011.6
20260905125020 22 0.0 0.0 0.00 0.00 0.00 14 1011.5
20260905124232 22 315 1.6 3.2 0.00 0.00 0.00 6 1011.5
20260905123020 22 315 3.2 6.4 0.00 0.00 0.00 11 1011.4
20260905122020 22 315 1.6 4.8 0.00 0.00 0.00 100 1011.2
20260905121020 22 0.0 3.2 0.00 0.00 0.00 100 1011.1
20260905120021 21 0.0 0.0 0.00 0.00 0.00 100 1011.1
20260905115020 20 0.0 0.0 0.00 0.00 0.00 100 1011.1
20260905114020 19 0.0 1.6 0.00 0.00 0.00 100 1011.3
20260905113020 18 0.0 1.6 0.00 0.00 0.00 100 1011.0
20260905112020 18 0.0 0.0 0.00 0.00 0.00 100 1010.9
20260905111020 18 0.0 0.0 0.00 0.00 0.00 100 1010.9
20260905110020 18 0.0 0.0 0.00 0.00 0.00 100 1010.8
20260905105020 18 0.0 0.0 0.00 0.00 0.00 100 1010.8
20260905104020 19 0.0 0.0 0.00 0.00 0.00 100 1010.6
20260905103020 20 0.0 0.0 0.00 0.00 0.00 100 1010.4
20260905102020 20 0.0 0.0 0.00 0.00 0.00 100 1010.4
20260905101020 21 0.0 0.0 0.00 0.00 0.00 100 1010.5
20260905100019 21 315 1.6 4.8 0.00 0.00 0.00 100 1010.3
20260905095019 21 0.0 1.6 0.00 0.00 0.00 100 1010.2
20260905094020 21 0.0 1.6 0.00 0.00 0.00 100 1010.3
20260905093020 21 315 1.6 4.8 0.00 0.00 0.00 100 1010.2
20260905092444 21 0.0 3.2 0.00 0.00 0.00 100 1010.1
20260905091018 22 0.0 3.2 0.00 0.00 0.00 100 1010.2
20260905090233 22 315 1.6 8.0 0.00 0.00 0.00 100 1010.1
20260905085019 21 0.0 4.8 0.00 0.00 0.00 100 1010.1
20260905084230 21 0.0 4.8 0.00 0.00 0.00 100 1010.1
20260905083020 21 315 1.6 6.4 0.00 0.00 0.00 100 1010.1
20260905082020 20 315 1.6 4.8 0.00 0.00 0.00 100 1010.1
20260905081018 20 315 1.6 4.8 0.00 0.00 0.00 100 1010.2
20260905080021 20 0.0 1.6 0.00 0.00 0.00 100 1010.3
20260905075020 20 0.0 0.0 0.00 0.00 0.00 100 1010.2
20260905074019 20 0.0 3.2 0.00 0.00 0.00 100 1010.1
20260905073018 20 0.0 3.2 0.00 0.00 0.00 100 1010.2
20260905072021 20 0.0 0.0 0.00 0.00 0.00 100 1010.2
20260905071233 20 0.0 1.6 0.00 0.00 0.00 100 1010.3
20260905070019 20 0.0 0.0 0.00 0.00 0.00 100 1010.3
20260905065019 20 0.0 3.2 0.00 0.00 0.00 100 1010.5
20260905064020 20 315 1.6 4.8 0.00 0.00 0.00 100 1010.5
20260905063019 20 315 3.2 6.4 0.00 0.00 0.00 100 1010.7
20260905062019 20 315 1.6 3.2 0.00 0.00 0.00 100 1010.7
20260905061234 21 0.0 1.6 0.00 0.00 0.00 100 1010.6
20260905060020 21 0.0 1.6 0.00 0.00 0.00 100 1010.7
20260905055019 21 315 1.6 3.2 0.00 0.00 0.00 100 1010.7
20260905054020 21 315 1.6 6.4 0.00 0.00 0.00 100 1010.9
20260905053019 21 315 1.6 8.0 0.00 0.00 0.00 100 1010.8
20260905052020 21 315 1.6 4.8 0.00 0.00 0.00 100 1011.0
20260905051020 21 0.0 1.6 0.00 0.00 0.00 100 1011.1
20260905050019 21 0.0 3.2 0.00 0.00 0.00 100 1011.3
20260905045018 21 315 1.6 6.4 0.00 0.00 0.00 100 1011.5
20260905044020 21 315 3.2 6.4 0.00 0.00 0.00 100 1011.5
20260905043019 21 315 3.2 9.7 0.00 0.00 0.00 100 1011.4
20260905042019 21 315 1.6 6.4 0.00 0.00 0.00 100 1011.3
20260905041020 20 0.0 0.0 0.00 0.00 0.00 100 1011.3
20260905040019 20 0.0 0.0 0.00 0.00 0.00 100 1011.2
20260905035019 20 0.0 0.0 0.00 0.00 0.00 100 1011.2
20260905034020 20 0.0 0.0 0.00 0.00 0.00 100 1011.2
20260905033020 21 0.0 1.6 0.00 0.03 0.00 100 1011.1
20260905032020 21 0.0 1.6 0.00 0.03 0.00 100 1011.1
20260905031020 21 0.0 0.0 0.00 0.03 0.00 100 1010.9
20260905030020 21 0.0 3.2 0.00 0.03 0.00 100 1010.9
20260905025020 21 0.0 1.6 0.00 0.03 0.00 100 1010.9
20260905024020 21 315 1.6 4.8 0.00 0.03 0.00 100 1010.8
20260905023032 22 0.0 3.2 0.00 0.03 0.00 100 1010.8
20260905022020 22 0.0 0.0 0.00 0.03 0.00 100 1010.7
20260905021231 23 0.0 0.0 0.00 0.03 0.00 100 1010.7
20260905020020 23 0.0 0.0 0.00 0.03 0.00 100 1010.6
20260905015020 24 0.0 3.2 0.00 0.03 0.00 100 1010.7
20260905014020 25 315 1.6 6.4 0.00 0.05 0.00 100 1010.7
20260905013020 25 315 3.2 6.4 0.00 0.08 0.00 100 1010.7
20260905012020 24 315 3.2 8.0 0.00 0.08 0.00 100 1010.7
20260905011232 24 315 1.6 6.4 0.00 0.08 0.00 100 1010.6
20260905010020 23 315 1.6 3.2 0.00 0.08 0.00 100 1010.5
20260905005234 23 0.0 1.6 0.00 0.08 0.00 100 1010.5
20260905004020 23 0.0 0.0 0.00 0.08 0.00 100 1010.6
20260905003020 24 0.0 1.6 0.00 0.08 0.00 100 1010.5
20260905002444 25 0.0 0.0 0.00 0.08 0.00 100 1010.3
20260905001020 25 0.0 0.0 0.00 0.08 0.00 100 1010.3
20260905000020 25 0.0 0.0 0.00 0.08 0.00 100 1010.2
20260904235447 25 0.0 0.0 0.00 0.08 0.00 100 1010.1
20260904234443 25 0.0 0.0 0.00 0.08 0.00 6 1010.1
20260904233020 26 0.0 0.0 0.00 0.08 0.00 27 1010.1
20260904232020 26 0.0 0.0 0.00 0.08 0.00 31 1010.1
20260904231020 26 0.0 3.2 0.00 0.08 0.00 41 1010.3
20260904230020 27 315 1.6 6.4 0.00 0.08 0.00 42 1010.3
20260904225020 27 315 1.6 4.8 0.00 0.08 0.00 46 1010.3
20260904224020 27 315 3.2 8.0 0.00 0.08 0.00 52 1010.1
20260904223020 28 315 1.6 6.4 0.00 0.08 0.00 51 1010.2
20260904222020 28 315 1.6 4.8 0.00 0.08 0.00 51 1010.2
20260904221020 28 0.0 3.2 0.00 0.08 0.00 51 1010.3
20260904220020 29 0.0 3.2 0.00 0.08 0.00 52 1010.3
20260904215020 29 0.0 1.6 0.00 0.08 0.00 51 1010.4
20260904214445 28 0.0 4.8 0.00 0.08 0.00 55 1010.7
20260904213020 28 315 1.6 6.4 0.00 0.08 0.00 60 1010.8
20260904212020 28 315 3.2 8.0 0.00 0.08 0.00 61 1010.9
20260904211020 28 315 1.6 3.2 0.00 0.08 0.00 53 1010.9
20260904210020 28 315 1.6 6.4 0.00 0.08 0.00 60 1010.8
20260904205020 28 315 1.6 6.4 0.00 0.08 0.00 62 1010.8
20260904204020 30 315 3.2 8.0 0.00 0.08 0.00 62 1010.9
20260904203030 29 315 3.2 8.0 0.00 0.08 0.00 62 1010.8
20260904202020 29 315 8.0 12.9 0.00 0.08 0.00 62 1011.0
20260904201230 29 315 8.0 17.7 0.00 0.08 0.00 61 1011.0
20260904200019 29 315 4.8 14.5 0.00 0.08 0.00 62 1011.0
20260904195020 29 293 3.2 12.9 0.00 0.08 0.00 62 1010.9
20260904194020 28 293 3.2 6.4 0.00 0.08 0.00 62 1011.1
20260904193020 28 293 4.8 14.5 0.00 0.08 0.00 62 1011.2
20260904192020 28 293 1.6 6.4 0.00 0.08 0.00 62 1011.3
20260904191230 28 315 3.2 12.9 0.00 0.08 0.00 62 1011.3
20260904190020 28 293 4.8 14.5 0.00 0.08 0.00 62 1011.5
20260904185019 28 293 3.2 9.7 0.00 0.08 0.00 62 1011.8
20260904184233 28 293 4.8 12.9 0.00 0.08 0.00 62 1012.1
20260904183020 28 293 4.8 14.5 0.00 0.08 0.00 61 1012.4
20260904182021 28 293 4.8 11.3 0.00 0.08 0.00 62 1012.4
20260904181231 28 293 4.8 12.9 0.00 0.08 0.00 59 1012.5
20260904180020 27 293 4.8 9.7 0.00 0.08 0.00 61 1012.7
20260904175020 27 293 8.0 16.1 0.00 0.08 0.00 62 1012.6
20260904174018 28 270 6.4 14.5 0.00 0.08 0.00 61 1012.6
20260904173020 27 270 4.8 11.3 0.00 0.08 0.00 61 1012.6
20260904172021 28 270 4.8 12.9 0.00 0.08 0.00 61 1012.6
20260904171020 27 270 6.4 14.5 0.00 0.08 0.00 62 1012.6